Weather History for HETB - November, 2012

Change the Weather History Date:

Tuesday, November 27, 2012

  Actual Average Record
Temperature  
Mean Temperature 58 °F -  
Max Temperature 69 °F - - ()
Min Temperature 46 °F - - ()
Degree Days  
Heating Degree Days 8    
Growing Degree Days 8 (Base 50)    
Moisture  
Dew Point 40 °F    
Average Humidity 59    
Maximum Humidity 93    
Minimum Humidity 25    
Precipitation  
Precipitation 0.00 in - - ()
Sea Level Pressure  
Sea Level Pressure 30.10 in    
Wind  
Wind Speed 1 mph ()    
Max Wind Speed 9 mph    
Max Gust Speed -    
T = Trace of Precipitation, MM = Missing Value Source: Averaged Metar Reports

Daily Weather History Graph

Daily Weather History Graph

Search for Another Location

Airport or City:

Trip Planner

Search our weather history database for the weather conditions in past years. The results will help you decide how hot, cold, wet, or windy it might be!

Date:

Astronomy

Nov. 27, 2012 Rise Set
Actual Time 6:15 AM EET 4:41 PM EET
Civil Twilight 5:49 AM EET 5:07 PM EET
Nautical Twilight 5:20 AM EET 5:36 PM EET
Astronomical Twilight 4:51 AM EET 6:05 PM EET
Moon 3:57 PM EET (11/27) 5:04 AM EET (11/27)
Length of Visible Light 11h 18m
Length of Day
10h 26m
Waxing Gibbous, 99% of the Moon is Illuminated
Nov 27
Waxing Gibbous
Nov 28
Full
Dec 6
Last Quarter
Dec 13
New
Dec 20
First Quarter

Hourly Weather History & Observations

Time (EET) Temp. Dew Point Humidity Pressure Visibility Wind Dir Wind Speed Gust Speed Precip Events Conditions
12:00 AM 50.0 °F 42.8 °F 76% 30.12 in - Calm Calm - N/A   Clear
1:00 AM 48.2 °F 41.0 °F 76% 30.12 in - Calm Calm - N/A   Clear
2:00 AM 50.0 °F 42.8 °F 76% 30.09 in - Calm Calm - N/A   Clear
3:00 AM 48.2 °F 42.8 °F 82% 30.09 in - Calm Calm - N/A   Clear
4:00 AM 46.4 °F 42.8 °F 87% 30.09 in - Calm Calm - N/A   Clear
5:00 AM 46.4 °F 42.8 °F 87% 30.09 in - Calm Calm - N/A   Clear
6:00 AM 46.4 °F 44.6 °F 93% 30.09 in - Calm Calm - N/A   Clear
7:00 AM 46.4 °F 44.6 °F 93% 30.09 in - Calm Calm - N/A   Clear
8:00 AM 51.8 °F 46.4 °F 82% 30.12 in - Calm Calm - N/A   Clear
9:00 AM 55.4 °F 46.4 °F 72% 30.12 in - Calm Calm - N/A   Clear
10:00 AM 62.6 °F 41.0 °F 45% 30.12 in - Calm Calm - N/A   Clear
11:00 AM 66.2 °F 37.4 °F 35% 30.12 in - Calm Calm - N/A   Clear
12:00 PM 66.2 °F 37.4 °F 35% 30.12 in - Calm Calm - N/A   Clear
1:00 PM 68.0 °F 37.4 °F 33% 30.12 in - North 3.5 mph - N/A   Clear
2:00 PM 69.8 °F 33.8 °F 27% 30.06 in - Calm Calm - N/A   Clear
3:00 PM 69.8 °F 32.0 °F 25% 30.06 in - Calm Calm - N/A   Clear
6:00 PM 60.8 °F 41.0 °F 48% 30.09 in - North 9.2 mph - N/A   Clear
7:00 PM 59.0 °F 39.2 °F 48% 30.09 in - North 6.9 mph - N/A   Clear
8:00 PM 59.0 °F 37.4 °F 45% 30.12 in - North 9.2 mph - N/A   Clear
9:00 PM 57.2 °F 35.6 °F 44% 30.12 in - North 8.1 mph - N/A   Clear
10:00 PM 57.2 °F 37.4 °F 48% 30.12 in - North 4.6 mph - N/A   Clear
11:00 PM 55.4 °F 37.4 °F 51% 30.12 in - Calm Calm - N/A   Clear